Погода в Бланесе

Испания     41°40′44″N   2°46′50″E
темп.,
°C
ветер,
м/с
пор.,
м/с
влажн.,
%
обл.,
%
осадки,
мм/ч
давл.,
гПа
погр.,
м
18 мая, ср
ср1823:00+17зсз11863 0.0 101911
02:00+17сз11805 0.0 101811
05:00+18сз1176100 0.0 101811
08:00+21сз1166100 0.0 101938
11:00+29юв224118 0.0 1019842
14:00+27ююв4447100 0.0 1018459
17:00+26ююв465061 0.0 1018494
20:00+23ююв246853 0.0 1018177
19 мая, чт
чт1923:00+18юз11855 0.0 102012
02:00+17юз118480 0.0 102012
05:00+17ююз018319 0.0 102011
08:00+19св117599 0.0 102258
11:00+25ююв335661 0.0 1023623
14:00+26ююв5551100 0.0 1023646
17:00+25ююв56535 0.0 1022503
20:00+22ю346857 0.0 1022191
20 мая, пт
пт2023:00+18ююз2275100 0.0 102426
02:00+17юз2263100 0.0 102415
05:00+16юз116659 0.0 102411
08:00+20юз235995 0.0 102576
11:00+26ю4645100 0.0 1025636
14:00+28ю583615 0.0 1024790
17:00+26ю584270 0.0 1023573
20:00+21ю4971100 0.0 1022256
21 мая, сб
сб2123:00+18ююз2283100 0.0 102331
02:00+17юз118229 0.0 102312
05:00+16с227473 0.0 102225
08:00+18с126993 0.0 102287
11:00+26ююв234596 0.0 1022674
14:00+26ююв554914 0.0 1020491
17:00+28ю45425 0.0 1018388
20:00+25ююв12535 0.0 101747
22 мая, вс
вс2223:00+20сз21615 0.0 101712
02:00+20зсз115411 0.0 101611
05:00+19зсз115136 0.0 101411
08:00+23ссз114948 0.0 101430
11:00+30вюв2234100 0.0 1014652
14:00+28ююв434486 0.0 1013497
17:00+28ю354047 0.0 1011362
20:00+23ю3563100 0.0 1010119